Probability
11 11 9 4 1 0 0 0 0 0 0 0 0 0 0 0 0 0 0 0 0 0 0 0 0 0 0 0 0 0 0 0 0 0 0 0 0 0 0 0 0 0 0
15 13 10 7 3 1 0 0 0 0 0 0 0 0 0 0 0 0 0 0 0 0 0 0 0 0 0 0 0 0 0 0 0 0 0 0 0 0 0 0 0 0 0
17 13 10 8 6 3 1 1 0 0 0 0 0 0 0 0 0 0 0 0 0 0 0 0 0 0 0 0 0 0 0 0 0 0 0 0 0 0 0 0 0 0 0
15 12 11 10 7 4 3 1 0 0 0 0 0 0 0 0 0 0 0 0 0 0 0 0 0 0 0 0 0 0 0 0 0 0 0 0 0 0 0 0 0 0 0
18 18 17 14 9 6 3 1 0 0 0 0 0 0 0 0 0 0 0 0 0 0 0 0 0 0 0 0 0 0 0 0 0 0 0 0 0 0 0 0 0 0 0
25 24 22 20 14 8 4 1 0 0 0 0 0 0 0 0 0 0 0 0 0 0 0 0 0 0 0 0 0 0 0 0 0 0 0 0 0 0 0 0 0 0 0
28 26 24 23 19 12 7 3 1 0 0 0 0 0 0 0 0 0 0 0 0 0 0 0 0 0 0 0 0 0 0 0 0 0 0 0 0 0 0 0 0 0 0
32 28 24 23 20 14 9 6 3 1 0 0 0 0 0 0 0 0 0 0 0 0 0 0 0 0 0 0 0 0 0 0 0 0 0 0 0 0 0 0 0 0 0
37 31 23 19 16 13 9 6 4 3 1 1 0 0 0 0 0 0 0 0 0 0 0 0 0 0 0 0 0 0 0 0 0 0 0 0 0 0 0 0 0 0 0
37 30 22 17 13 10 7 5 4 4 3 2 1 0 0 0 0 0 0 0 0 0 0 0 0 0 0 0 0 0 0 0 0 0 0 0 0 0 0 0 0 0 0
38 31 23 18 12 8 5 4 4 4 4 3 2 1 1 1 1 1 1 1 1 0 0 0 0 0 0 0 0 0 0 0 0 1 1 1 0 0 0 0 0 0 0
42 34 29 25 17 10 7 5 3 3 4 4 3 2 3 4 3 2 2 2 1 0 0 0 0 0 0 0 0 0 0 0 0 2 3 2 1 0 0 0 0 0 0
46 40 38 36 29 21 16 11 5 4 4 5 5 5 6 6 5 4 4 2 1 1 1 1 1 0 0 1 2 1 0 0 0 2 4 4 1 0 0 0 0 1 1
51 46 46 49 44 39 32 22 13 9 7 8 10 9 8 7 6 6 6 5 3 2 2 2 2 1 1 2 3 2 1 0 0 1 3 4 3 2 2 1 1 3 3
55 53 55 57 57 53 44 32 23 18 15 15 15 13 11 9 7 5 6 6 4 3 3 2 1 1 1 1 2 2 1 1 1 2 2 3 4 4 4 3 3 3 4
59 59 61 62 61 56 45 35 28 24 21 20 19 17 14 11 8 5 5 5 5 5 4 2 0 0 0 0 1 1 1 1 2 2 2 2 4 5 5 5 5 5 4
61 61 61 61 59 51 40 33 29 25 22 22 22 20 16 12 8 6 5 6 6 6 4 1 1 1 0 0 0 0 0 1 1 2 2 2 3 4 5 6 6 7 7
59 58 56 56 56 49 39 34 31 27 24 23 22 19 14 9 7 6 6 6 5 4 2 1 1 1 0 0 0 0 0 0 0 1 1 1 1 3 4 5 6 8 9
55 54 51 50 51 47 40 35 32 30 28 25 20 15 9 6 5 6 5 4 4 3 1 0 1 1 0 0 0 0 0 0 0 0 0 0 1 2 3 4 5 6 7
51 50 48 47 47 45 39 34 31 29 26 22 16 11 6 4 4 4 4 3 3 2 1 0 0 0 0 0 0 0 0 0 0 0 0 0 0 1 2 4 5 4 4
47 47 46 44 43 41 36 32 29 25 19 15 11 7 5 5 4 3 3 3 3 2 1 0 0 0 0 0 0 0 0 1 0 0 0 0 0 0 1 4 5 5 4
43 44 44 41 37 35 31 27 25 21 15 12 9 6 4 4 3 3 3 3 3 2 1 0 0 0 0 0 0 0 0 0 0 0 0 0 0 0 0 1 3 4 3
39 41 42 40 35 31 28 25 21 16 13 11 9 6 4 3 3 3 3 3 3 2 1 0 0 0 0 0 0 0 0 0 0 0 0 0 0 0 0 0 0 1 1
34 37 40 39 35 30 26 23 18 12 10 9 8 6 4 3 3 3 3 3 3 3 1 0 0 0 0 0 0 0 0 0 0 0 0 0 0 0 0 0 0 0 0
29 30 34 35 32 27 23 20 15 11 10 9 9 7 4 3 3 3 3 3 3 3 2 2 1 1 0 0 0 0 0 0 0 0 0 0 0 0 0 0 0 0 0
24 25 28 30 29 25 21 18 15 12 11 11 10 6 4 3 3 3 3 3 3 3 3 3 2 1 0 0 0 0 0 0 0 0 0 0 0 0 0 0 0 0 0
Wind_Speed
19 19 18 16 15 14 14 14 14 14 13 13 13 13 13 13 13 13 13 13 13 13 13 12 12 12 12 12 12 12 12 12 13 14 15 15 14 12 11 12 15 13 15
22 20 18 17 16 15 14 14 14 14 13 13 13 12 12 12 12 12 12 13 12 12 13 12 13 12 12 12 11 11 10 10 11 13 14 14 13 12 11 12 15 11 15
22 19 18 16 16 15 14 14 14 14 13 13 12 12 12 12 12 12 12 12 12 12 12 12 12 12 12 11 10 9 8 8 8 9 10 9 11 13 14 16 16 15 14
22 18 17 17 16 15 15 14 14 13 13 12 12 12 11 11 11 12 12 12 12 12 12 12 12 12 11 10 9 7 6 4 3 4 3 8 9 13 14 14 14 14 14
19 17 18 18 17 16 15 14 14 13 13 12 12 11 11 11 11 11 12 12 11 11 12 12 12 11 11 9 7 5 4 2 2 2 5 10 9 11 13 13 13 13 13
19 19 18 18 17 16 15 14 13 13 12 12 11 11 11 11 10 10 11 11 11 11 11 11 11 10 9 8 6 4 3 4 6 2 8 10 9 11 12 12 12 12 12
19 18 18 18 17 16 15 14 13 13 12 12 11 11 10 10 10 10 10 10 10 10 10 10 10 9 8 7 5 3 4 7 5 5 9 9 9 11 11 11 11 11 11
19 19 17 17 17 16 15 14 13 12 12 11 11 10 10 10 9 9 9 9 9 9 9 9 8 8 7 5 3 3 5 8 4 7 10 10 11 11 11 11 10 10 10
19 18 16 15 14 15 15 14 13 12 11 11 10 10 10 9 9 9 8 8 8 8 8 7 7 6 5 3 1 3 5 8 6 3 10 8 12 12 11 10 10 10 9
18 17 15 15 13 12 12 13 13 12 11 11 10 9 9 9 9 9 9 8 8 7 7 6 5 4 3 2 2 3 6 7 2 4 6 8 13 12 11 10 9 9 9
15 15 15 15 13 12 12 13 12 12 11 10 9 10 9 7 8 7 8 10 8 7 6 5 4 4 4 5 5 6 6 4 1 4 6 11 12 12 11 10 9 9 8
13 13 12 14 12 11 10 10 8 8 8 7 6 7 6 4 4 8 10 10 9 7 6 6 5 5 5 4 6 7 4 3 2 4 7 13 12 12 11 10 9 9 9
11 10 12 12 10 9 7 7 5 4 5 6 6 5 3 3 4 6 5 5 5 6 4 4 4 2 2 1 1 2 2 1 2 4 8 12 11 11 11 10 9 9 9
9 8 10 11 8 6 7 5 4 4 4 3 4 3 3 2 2 3 3 3 3 2 2 1 1 0 1 2 2 3 3 1 2 3 6 11 10 11 11 10 10 10 10
7 7 8 9 8 6 5 3 4 3 4 4 4 3 3 3 2 3 2 2 1 2 2 1 1 0 1 1 3 2 3 2 1 2 4 10 10 10 11 11 11 11 11
8 7 8 9 9 7 5 2 2 3 3 4 3 4 3 3 3 3 3 2 1 2 2 1 1 1 1 1 2 2 2 2 1 1 2 5 9 10 10 11 12 12 12
9 7 7 9 9 7 6 4 3 3 4 3 3 3 3 3 3 3 3 2 2 2 2 1 1 1 1 1 1 2 2 1 1 1 1 2 5 9 10 10 11 12 12
9 9 7 9 10 7 5 4 3 3 4 4 4 3 3 3 3 2 3 3 1 1 2 1 1 1 1 1 1 2 2 2 3 3 3 3 3 4 8 11 11 11 12
8 9 7 7 9 8 6 4 3 3 3 3 4 3 3 3 3 3 3 2 1 1 2 2 3 2 1 1 3 3 2 3 3 3 3 3 3 3 4 8 12 11 13
8 9 8 8 8 7 6 4 3 4 3 2 3 4 4 3 3 3 4 2 1 2 2 2 1 0 1 1 4 2 2 2 2 1 1 2 2 3 2 4 5 7 12
10 10 9 9 8 6 5 4 4 4 3 3 4 5 4 3 3 2 4 2 2 3 2 2 1 2 1 1 2 3 3 4 3 2 1 0 0 0 1 2 3 2 4
11 10 10 9 9 7 5 4 3 4 3 4 4 5 4 4 3 4 3 2 2 2 2 1 1 2 2 1 2 3 2 1 1 2 2 2 1 0 1 2 3 3 2
11 11 10 10 9 8 8 5 4 3 2 4 5 4 4 4 3 3 3 2 1 2 3 1 1 1 2 2 1 2 3 2 2 1 0 1 1 0 1 1 2 2 2
11 11 10 10 9 7 7 6 7 6 5 5 5 4 4 4 3 4 3 3 1 1 2 1 2 1 1 2 1 0 1 2 2 2 1 1 1 1 1 1 1 1 2
12 11 11 10 9 8 7 7 6 5 5 5 5 6 5 4 3 4 4 3 2 1 2 2 2 2 2 2 2 2 1 0 2 1 2 2 2 1 1 1 0 0 0
12 11 12 11 9 8 7 6 5 5 5 7 6 6 4 4 4 4 5 3 2 1 2 2 1 0 0 2 2 3 2 1 2 2 2 2 2 1 1 1 1 0 0
Wind_Direction
125 128 132 132 131 130 127 123 119 115 112 108 104 101 97 94 91 90 89 88 87 88 88 87 86 83 80 78 79 81 84 88 92 94 94 90 86 85 90 107 104 96 99
124 129 131 131 131 130 128 125 122 119 116 113 110 107 104 100 96 93 92 90 89 88 87 87 87 85 85 84 85 88 91 97 104 108 107 96 86 81 85 90 95 103 103
123 129 131 131 131 129 129 127 125 123 121 118 114 110 106 102 99 97 95 93 91 90 90 88 87 86 86 86 87 90 95 103 114 128 128 107 93 85 89 94 100 104 103
126 134 133 131 131 130 129 129 128 127 124 121 117 113 110 106 103 100 99 96 94 92 92 90 88 87 88 87 87 88 90 101 126 163 150 109 99 94 95 99 103 105 105
127 127 129 134 131 131 130 130 130 129 127 124 121 119 114 110 106 103 103 101 99 96 94 93 90 90 89 88 85 78 65 26 307 250 101 92 94 102 101 103 105 107 108
126 128 132 134 132 132 132 131 130 130 129 128 125 122 118 113 110 108 104 103 103 100 98 97 94 93 92 90 84 65 27 344 309 137 113 109 107 109 108 109 109 110 111
129 128 135 136 134 134 134 134 133 132 131 129 127 124 122 118 115 113 110 107 106 104 102 99 98 96 95 90 77 45 359 328 300 100 104 105 114 117 115 114 113 114 114
130 130 134 137 136 137 137 137 136 135 134 132 130 130 128 128 125 121 119 113 110 109 106 103 102 101 99 94 69 5 340 325 351 99 105 112 123 121 121 121 120 120 120
130 130 139 141 141 141 141 140 140 140 140 139 138 139 138 137 136 133 129 122 117 116 115 113 111 111 109 107 80 325 319 322 314 104 117 121 129 127 127 128 129 128 128
134 138 145 145 145 148 146 146 146 147 148 148 149 152 153 153 152 150 145 136 130 128 128 127 126 131 144 170 227 277 299 308 293 79 101 126 136 135 136 137 138 138 138
136 142 150 146 152 156 153 149 152 154 156 157 162 169 172 178 168 164 148 144 144 143 145 147 155 174 193 210 230 252 275 271 90 95 108 137 146 144 146 148 150 151 150
139 147 148 149 155 160 152 147 160 164 161 179 169 177 191 181 151 142 143 150 153 160 165 171 185 210 226 219 217 231 251 251 114 117 130 148 153 152 155 160 162 165 165
145 146 146 144 151 151 133 153 155 153 160 183 167 175 157 146 139 136 147 152 166 179 186 174 195 224 246 309 253 228 268 318 95 119 139 151 156 161 165 171 175 177 177
146 145 141 141 142 130 134 141 143 148 162 152 142 149 129 114 100 116 130 138 153 149 140 142 157 193 324 346 317 299 311 342 72 108 144 153 162 171 177 181 185 188 188
147 139 128 134 128 122 112 128 143 134 134 125 133 128 126 126 113 104 97 104 136 127 137 143 115 91 327 328 296 302 327 336 41 85 137 164 170 177 185 191 194 196 195
153 139 130 130 127 125 123 124 112 118 112 117 120 126 122 112 111 117 123 121 97 105 112 123 146 168 241 264 288 307 299 312 32 90 152 174 183 184 189 196 201 201 202
151 143 135 135 138 141 145 158 141 131 130 116 111 118 114 111 121 123 125 119 104 122 131 138 176 179 210 233 256 280 271 284 276 219 203 190 190 195 197 199 203 203 206
153 146 152 150 145 146 144 153 138 133 122 119 117 114 121 124 130 131 121 111 145 143 138 145 61 27 40 346 267 260 238 213 222 217 219 211 195 191 199 204 204 205 208
150 147 151 141 145 147 144 146 139 115 108 117 125 127 131 139 150 130 107 109 198 105 79 60 69 21 360 329 270 237 231 215 210 225 210 219 207 190 189 199 206 207 212
151 150 148 141 144 144 143 148 138 128 125 120 121 127 140 157 145 123 123 128 101 83 70 64 42 308 289 289 300 295 247 226 201 206 231 229 205 210 189 176 193 214 220
157 155 150 150 149 145 148 158 155 146 148 144 145 142 154 150 130 122 116 134 116 104 86 59 9 318 291 357 307 286 242 204 173 174 191 291 285 237 175 173 190 197 211
156 156 149 151 154 156 159 159 158 145 159 153 137 141 152 140 148 148 121 143 107 118 108 81 42 337 337 23 322 320 311 74 325 173 161 195 178 4 261 212 179 194 211
158 159 158 157 159 160 157 156 146 138 154 143 138 149 160 154 160 115 133 117 124 149 125 118 52 10 356 326 15 354 349 26 323 102 141 104 104 222 291 284 211 195 199
162 161 150 154 157 156 161 161 160 171 170 155 152 152 158 165 163 147 141 127 106 79 111 154 85 352 339 321 351 42 44 55 337 340 315 89 185 203 226 301 327 218 180
163 160 155 154 158 162 171 170 176 176 167 149 144 140 160 166 171 157 142 132 130 102 106 87 75 360 341 352 348 355 11 329 250 274 315 326 294 240 189 180 254 324 130
160 158 157 158 161 166 170 168 180 180 158 143 147 155 179 168 175 162 146 138 160 144 117 117 100 204 348 15 347 336 338 338 335 334 319 308 304 292 217 145 176 194 131